SCP
0 0 0 0 0 0 0 0 0 0 0 0 0 0 0 0 0 0 0 0 0 0 0 0 0 0 0 0 0 0 0 0 0 0 0 0 0 0 0 0 0 1 1
0 0 0 0 0 0 0 0 0 0 0 0 0 0 0 0 0 0 0 0 0 0 0 0 0 0 0 0 0 0 0 0 0 0 0 0 0 0 0 0 0 1 1
0 0 0 0 0 0 0 0 0 0 0 0 0 0 0 0 0 0 0 0 0 0 0 0 0 0 0 0 0 0 0 0 0 0 0 0 0 0 0 0 0 0 1
0 0 0 0 0 0 0 0 0 0 0 0 0 0 0 0 0 0 0 0 0 0 0 0 0 0 0 0 0 0 0 0 0 0 0 0 0 0 0 0 0 0 0
0 0 0 0 0 0 0 0 0 0 0 0 0 0 0 0 0 0 0 0 0 0 0 0 0 0 0 0 0 0 0 0 0 0 0 0 0 0 0 0 0 0 0
0 0 0 0 0 0 0 0 0 0 0 0 0 0 0 0 0 0 0 0 0 0 0 0 0 0 0 0 0 0 0 0 0 0 0 0 0 0 0 0 0 0 0
0 0 0 0 0 0 0 0 0 0 0 0 0 0 0 0 0 0 0 0 0 0 0 0 0 0 0 0 0 0 0 0 0 0 0 0 0 0 0 0 0 0 0
0 0 0 0 0 0 0 0 0 0 0 0 0 0 0 0 0 0 0 0 0 0 0 0 0 0 0 0 0 0 0 0 0 0 0 0 0 0 0 0 0 0 0
0 0 0 0 0 0 0 0 0 0 0 0 0 0 0 0 0 0 0 0 0 0 0 0 0 0 0 0 0 0 0 0 0 0 0 0 0 0 0 0 0 0 0
0 0 0 0 0 0 0 0 0 0 0 0 0 0 0 0 0 0 0 0 0 0 0 0 0 0 0 0 0 0 0 0 0 0 0 0 0 0 0 0 0 0 0
0 0 0 0 0 0 0 0 0 0 0 0 0 0 0 0 0 0 0 0 0 0 0 0 0 0 0 0 0 0 0 0 0 0 0 0 0 0 0 0 0 0 0
0 0 0 0 0 0 0 0 0 0 0 0 0 0 0 0 0 0 0 0 0 0 0 0 0 0 0 0 0 0 0 0 0 0 0 0 0 0 0 0 0 0 0
0 0 0 0 0 0 0 0 0 0 0 0 0 0 0 0 0 0 0 0 0 0 0 0 0 0 0 0 0 0 0 0 0 0 0 0 0 0 0 0 0 0 0
0 0 0 0 0 0 0 0 0 0 0 0 0 0 0 0 0 0 0 0 0 0 0 0 0 0 0 0 0 0 0 0 0 0 0 0 0 0 0 0 0 0 0
0 0 0 0 0 0 0 0 0 0 0 0 0 0 0 0 0 0 0 0 0 0 0 0 0 0 0 0 0 0 0 0 0 0 0 0 0 0 0 0 0 0 0
0 0 0 0 0 0 0 0 0 0 0 0 0 0 0 0 0 0 0 0 0 0 0 0 0 0 0 0 0 0 0 0 0 0 0 0 0 0 0 0 0 0 0
0 0 0 0 0 0 0 0 0 0 0 0 0 0 0 0 0 0 0 0 0 0 0 0 0 0 0 0 0 0 0 0 0 0 0 0 0 0 0 0 0 0 0
0 0 0 0 0 0 0 0 0 0 0 0 0 0 0 0 0 0 0 0 0 0 0 0 0 0 0 0 0 0 0 0 0 0 0 0 0 0 0 0 0 0 0
0 0 0 0 0 0 0 0 0 0 0 0 0 0 0 0 0 0 0 0 0 0 0 0 0 0 0 0 0 0 0 0 0 0 0 0 0 0 0 0 0 0 0
0 0 0 0 0 0 0 0 0 0 0 0 0 0 0 0 0 0 0 0 0 0 0 0 0 0 0 0 0 0 0 0 0 0 0 0 0 0 0 0 0 0 0
0 0 0 0 0 0 0 0 0 0 0 0 0 0 0 0 0 0 0 0 0 0 0 0 0 0 0 0 0 0 0 0 0 0 0 0 0 0 0 0 0 0 0
0 0 0 0 0 0 0 0 0 0 0 0 0 0 0 0 0 0 0 0 0 0 0 0 0 0 0 0 0 0 0 0 0 0 0 0 0 0 0 0 0 0 0
0 0 0 0 0 0 0 0 0 0 0 0 0 0 0 0 0 0 0 0 0 0 0 0 0 0 0 0 0 0 0 0 0 0 0 0 0 0 0 0 0 0 0
0 0 0 0 0 0 0 0 0 0 0 0 0 0 0 0 0 0 0 0 0 0 0 0 0 0 0 0 0 0 0 0 0 0 0 0 0 0 0 0 0 0 0
0 0 0 0 0 0 0 0 0 0 0 0 0 0 0 0 0 0 0 0 0 0 0 0 0 0 0 0 0 0 0 0 0 0 0 0 0 0 0 0 0 0 0
0 0 0 0 0 0 0 0 0 0 0 0 0 0 0 0 0 0 0 0 0 0 0 0 0 0 0 0 0 0 0 0 0 0 0 0 0 0 0 0 0 0 0
Wind_Speed
4 5 5 5 4 4 3 3 3 2 1 1 1 1 2 2 2 3 4 4 4 4 3 2 3 2 2 2 3 2 3 2 2 3 4 5 6 7 7 7 7 9 10
4 5 5 5 6 5 5 4 4 3 2 1 1 1 0 1 2 3 3 4 4 4 3 3 3 2 2 3 2 1 2 2 2 2 3 4 4 3 5 5 6 8 7
7 7 7 7 6 7 6 5 4 4 2 1 1 1 2 2 2 3 3 4 5 4 4 4 3 2 1 2 2 2 1 2 2 2 2 2 3 4 3 4 5 5 5
6 6 7 7 7 7 5 5 5 4 3 2 1 1 1 2 3 2 3 5 4 4 4 4 3 3 2 2 2 1 1 1 2 2 2 3 3 3 4 3 2 4 5
7 7 7 7 6 5 5 5 4 4 3 3 2 2 2 3 2 3 4 4 4 4 4 4 3 3 2 2 2 2 1 1 2 1 2 2 2 3 3 4 4 3 3
6 6 5 4 3 3 3 4 4 4 3 3 3 3 4 4 4 4 4 4 3 3 4 4 3 3 2 3 3 2 2 2 2 2 2 2 2 2 2 4 4 5 4
5 5 5 5 5 4 4 4 4 3 3 3 4 4 5 5 5 5 4 4 3 3 5 4 3 3 3 4 3 2 3 3 3 3 2 3 3 2 2 3 4 4 4
5 6 6 6 5 5 5 4 4 4 4 4 4 4 5 4 4 5 4 4 4 5 5 5 5 5 5 4 3 3 3 3 3 4 4 3 4 3 3 2 3 4 3
5 5 5 5 5 5 5 5 5 4 5 5 5 5 5 5 5 5 5 4 5 5 6 5 5 5 5 5 4 3 4 4 4 4 4 4 4 4 4 3 3 3 4
4 5 5 4 3 3 3 3 4 5 5 5 5 4 5 5 5 4 5 6 6 5 6 7 6 6 6 5 5 5 5 5 5 4 5 4 4 4 4 4 4 4 4
6 5 4 2 2 2 3 3 4 4 5 5 5 5 5 5 4 5 6 6 6 6 6 7 7 7 7 6 5 6 6 6 6 6 6 6 5 4 4 4 4 4 4
4 3 3 2 2 3 4 4 5 5 6 5 4 5 5 5 5 6 6 6 6 7 7 7 7 8 8 7 7 8 7 7 8 8 7 8 6 6 5 4 5 5 5
4 2 2 3 4 5 5 5 5 6 5 4 5 5 5 5 6 7 7 6 7 7 7 7 8 8 8 8 8 8 9 8 9 8 8 8 8 7 6 6 6 5 5
4 4 4 5 5 5 5 5 6 5 5 4 5 5 6 6 6 7 7 7 7 7 8 8 8 9 9 9 9 9 9 9 9 9 9 9 9 9 8 7 7 6 6
6 7 6 6 5 5 5 5 6 5 4 4 5 6 6 6 6 7 7 7 7 8 8 8 9 9 8 9 9 9 10 9 10 9 9 10 12 13 10 7 7 7 6
8 8 7 7 6 6 6 6 6 5 4 5 6 6 6 6 6 7 7 7 8 8 8 9 9 10 8 11 14 12 10 10 11 11 10 10 12 14 15 16 14 12 9
9 8 8 8 7 7 6 6 6 5 4 5 6 6 6 6 7 7 7 8 8 8 9 9 9 10 11 14 16 16 11 11 11 11 10 9 10 11 10 12 15 15 16
9 9 8 7 6 6 5 5 5 4 5 6 6 6 6 7 7 7 8 8 7 8 8 9 10 10 11 14 14 15 11 10 11 11 11 11 11 10 10 10 10 10 11
9 8 8 7 6 6 6 4 5 5 5 6 7 7 6 7 8 8 9 8 7 8 8 9 10 10 12 13 13 12 7 8 10 10 11 11 12 13 14 12 11 11 10
7 7 6 5 6 6 4 4 6 5 7 7 7 6 6 7 8 9 9 8 7 9 9 10 9 10 11 12 13 11 6 7 8 8 9 13 14 13 13 12 11 12 10
9 7 6 6 7 6 4 6 6 8 8 6 6 6 7 7 8 8 8 8 8 9 9 10 10 9 10 11 13 11 6 6 7 7 7 7 11 14 14 13 11 12 10
8 8 7 7 7 5 5 7 8 8 6 5 6 7 7 7 7 7 8 8 8 8 9 8 9 7 7 8 9 11 10 8 7 8 7 7 10 12 13 11 12 14 12
9 7 8 8 6 6 7 8 9 6 5 5 6 7 7 7 7 8 8 8 7 6 7 7 8 8 6 6 10 11 10 9 7 7 10 10 11 10 9 11 13 11 8
8 7 8 8 8 7 8 9 8 5 5 6 7 6 7 8 7 6 6 7 7 7 7 7 7 7 7 6 5 4 5 6 6 5 7 8 9 7 6 6 7 7 7
8 7 8 9 10 8 8 8 7 5 6 6 6 6 6 7 8 7 6 7 8 8 8 8 7 8 8 7 6 5 5 4 4 4 4 3 3 3 4 4 5 6 6
7 7 8 9 9 7 7 7 6 6 6 6 6 5 5 6 6 7 8 9 11 13 14 15 12 9 12 13 12 10 10 9 7 4 4 4 4 4 5 5 5 6 6
Wind_Direction
187 186 191 193 191 198 195 189 180 180 141 87 66 37 354 339 343 345 353 353 353 357 357 342 328 324 304 295 303 294 297 288 282 285 287 274 252 244 241 236 233 231 226
191 201 206 206 205 207 209 207 205 201 189 157 148 163 257 295 294 313 332 346 350 348 353 345 326 316 302 309 313 295 302 295 306 285 294 308 312 276 246 238 234 233 227
205 210 212 214 214 216 211 208 209 209 204 169 106 55 17 347 337 329 327 332 334 337 341 337 327 315 288 285 292 286 271 288 302 282 288 304 304 315 291 248 244 240 233
216 217 218 221 221 222 208 204 205 209 209 181 172 188 227 268 267 279 293 307 315 323 328 329 329 319 302 288 287 299 262 254 291 308 285 261 274 291 311 308 266 247 240
223 224 224 223 223 212 199 199 199 212 212 198 195 208 240 248 273 286 294 300 308 313 317 319 328 329 312 297 290 297 274 239 241 264 294 296 284 259 278 297 316 308 260
229 228 226 210 213 194 183 182 190 215 219 218 219 220 242 260 277 286 290 294 298 300 305 308 311 310 305 301 294 283 273 248 244 247 251 262 280 294 284 288 303 300 288
220 214 206 197 198 189 188 184 189 222 234 236 242 238 241 247 252 264 268 277 286 288 292 300 290 288 287 287 281 281 284 264 249 247 246 247 250 256 260 278 292 294 291
216 213 204 195 193 194 189 186 199 229 243 244 251 252 248 241 247 252 252 257 260 268 277 281 277 276 279 283 279 275 276 271 265 264 253 250 254 249 246 254 288 301 293
211 200 190 187 191 193 196 199 208 233 247 247 253 260 256 247 251 259 257 258 260 270 273 275 277 277 275 274 273 266 272 273 267 266 262 253 253 249 248 243 242 268 294
196 192 191 196 202 208 214 216 218 234 248 253 254 259 258 256 257 264 267 266 269 271 279 280 278 276 273 267 259 260 263 262 262 257 260 258 257 254 249 244 241 238 254
203 204 206 211 215 226 231 237 243 250 258 259 259 266 267 268 269 267 268 271 275 276 276 278 279 278 275 269 257 255 257 254 258 260 257 260 258 255 251 242 238 238 238
208 211 216 222 235 245 251 253 256 256 258 260 264 266 271 276 275 272 273 275 275 276 276 278 278 277 276 270 264 266 265 253 254 256 254 259 260 252 250 242 238 237 233
210 215 224 233 243 250 256 260 261 260 265 265 267 274 277 275 272 273 277 278 277 279 280 277 276 277 277 275 269 265 265 259 254 252 249 252 252 253 250 244 242 241 241
216 218 233 243 248 253 256 263 270 267 266 265 265 270 272 270 270 274 277 277 277 278 279 277 275 275 276 275 273 269 267 265 260 253 248 247 243 244 246 244 242 241 242
224 225 231 242 250 257 262 262 267 270 264 264 268 268 271 272 272 274 276 278 277 278 276 279 279 276 273 269 266 265 267 266 266 260 251 246 243 242 239 235 233 232 234
231 232 235 239 243 247 254 260 263 264 258 260 266 272 277 276 275 275 279 281 280 279 278 276 276 276 272 269 269 270 270 268 268 268 263 255 255 254 251 247 239 225 224
228 229 231 230 235 240 242 249 255 262 259 261 268 274 274 275 276 280 283 282 281 279 280 278 274 273 271 269 271 272 270 265 265 264 263 262 257 248 242 246 248 242 232
226 228 228 230 235 235 238 245 253 254 257 265 270 273 273 276 279 281 281 281 278 278 279 279 277 275 274 271 270 273 272 266 263 260 257 255 256 251 241 242 244 243 240
217 220 218 216 224 234 236 241 254 255 260 264 267 270 271 276 282 283 282 282 281 282 280 278 277 276 278 275 272 271 268 264 264 261 257 252 253 247 237 239 244 245 245
219 218 213 208 225 236 224 229 249 254 257 259 262 268 269 272 277 279 281 280 278 280 284 282 276 272 275 276 274 273 261 263 265 265 259 253 250 246 235 236 238 241 240
215 209 199 208 224 225 204 229 246 250 252 256 262 269 270 271 274 276 275 280 283 285 284 283 281 276 271 274 273 270 252 251 262 266 264 256 245 244 239 232 232 234 231
211 198 197 219 227 212 203 230 244 249 253 254 260 269 274 276 281 277 281 281 281 285 287 287 289 282 271 264 269 268 259 250 253 261 264 261 254 249 245 235 229 225 220
207 196 199 220 232 217 206 227 244 245 245 250 260 270 280 281 278 277 282 287 283 279 285 286 287 289 285 272 264 268 269 267 259 258 260 264 264 259 250 237 223 214 213
205 197 196 216 233 228 218 227 241 238 235 251 265 274 283 289 288 279 273 276 280 281 283 284 284 287 288 282 273 264 266 274 275 272 271 270 265 251 243 234 218 212 209
199 191 198 215 230 231 230 233 233 223 234 250 264 275 279 283 290 287 276 273 267 258 265 277 276 279 283 278 265 260 265 266 272 285 274 264 260 248 236 228 217 209 206
190 192 206 221 232 232 238 238 224 212 225 250 264 270 279 284 286 294 300 278 263 269 262 255 254 262 258 270 277 269 264 264 269 264 260 264 255 247 239 226 216 208 209